Back to catalog

STARLINK-3302

AliveCommunicationsVLEO
NORAD 50842·PAYLOAD·🇺🇸 United States

Launched Jan 6, 2022 from Cape Canaveral Space Force Station

Loading…

Next Passes (next 24 hours)

TLE

FreshSource: CelesTrak SupGP

Epoch: Sep 14, 2026, 21:17 UTC

1 50842C 22001AR  26257.88729167  .00036219  00000+0  11648-2 0  2573
2 50842  53.1596  35.9208 0001075  78.4781  40.2111 15.31683309    14

Track STARLINK-3302 in real time with AllMySat

Download on the App Store